Observations
| Time | Sensor | AQI | SAQ | Temp °C | Hum % | Pres Pa | CO μg/m³ | H₂S μg/m³ | NO μg/m³ | NO₂ μg/m³ | O₃ μg/m³ | SO₂ μg/m³ | CO₂e PPM | VOC PPM | PM1 μg/m³ | PM2.5 μg/m³ | PM4 μg/m³ | PM10 μg/m³ | TPS µm |
|---|---|---|---|---|---|---|---|---|---|---|---|---|---|---|---|---|---|---|---|
| Tuesday 11 August 2026 | |||||||||||||||||||
| 20:09 | Trim Market St | 3 | 27.7 | 34 | 66,035 | 0 | 6.68 | 0.82 | 27.54 | 58.06 | 0 | 0.71 | 4.76 | 5.23 | |||||
| 20:09 | Trim Patrick St | 3 | 28.4 | 34 | 69,284 | 0 | 32.28 | 0.72 | 40.17 | 54.18 | 19.12 | 4.57 | 9.79 | 10.77 | |||||
| 20:08 | Trim Patrick St | 3 | 28.5 | 34 | 69,276 | 0 | 34.04 | 0.73 | 44.24 | 52.61 | 19.57 | 5.43 | 11.38 | 12.52 | |||||
| 20:07 | Trim Patrick St | 3 | 28.5 | 34 | 69,264 | 0 | 33.67 | 0.75 | 52.77 | 48.17 | 19.5 | 4.57 | 11.39 | 12.53 | |||||
| 20:06 | Trim Patrick St | 3 | 28.5 | 33 | 69,250 | 0 | 28.51 | 0.74 | 31.93 | 59.07 | 17.93 | 3.71 | 9.89 | 10.88 | |||||
| 20:05 | Trim Patrick St | 3 | 28.5 | 34 | 69,236 | 0 | 32.33 | 0.76 | 57.03 | 43.32 | 18.82 | 2.86 | 9.81 | 10.8 | |||||
| 20:05 | Trim Market St | 3 | 27.8 | 34 | 66,068 | 0 | 7.36 | 0.81 | 32 | 56.54 | 0 | 2.14 | 5.85 | 6.43 | |||||
| 20:04 | Trim Patrick St | 3 | 28.5 | 34 | 69,242 | 0 | 33.19 | 0.74 | 52.86 | 46.63 | 18.8 | 2.86 | 9.02 | 9.92 | |||||
| 20:04 | Trim Market St | 3 | 27.8 | 34 | 66,096 | 0 | 8.54 | 0.81 | 34.92 | 56.08 | 0 | 1.43 | 5.31 | 5.84 | |||||
| 20:03 | Trim Patrick St | 3 | 28.5 | 34 | 69,246 | 0 | 34.28 | 0.73 | 40.24 | 54.87 | 19.49 | 4.57 | 10.63 | 11.69 | |||||
| 20:03 | Trim Market St | 3 | 27.8 | 33 | 66,100 | 0 | 7.87 | 0.82 | 29.45 | 57.95 | 0 | 2.14 | 5.32 | 5.85 | |||||
| 20:02 | Trim Patrick St | 3 | 28.5 | 34 | 69,254 | 0 | 36.45 | 0.72 | 45.54 | 49.98 | 19.78 | 4.57 | 10.62 | 11.68 | |||||
| 20:02 | Trim Market St | 3 | 27.9 | 33 | 66,102 | 0 | 6.72 | 0.8 | 25.75 | 59.82 | 0 | 2.14 | 4.78 | 5.26 | |||||
| 20:01 | Trim Patrick St | 3 | 28.5 | 34 | 69,265 | 0 | 31.45 | 0.74 | 52.48 | 48.7 | 18.77 | 4.57 | 11.4 | 12.54 | |||||
| 20:00 | Trim Patrick St | 3 | 28.5 | 33 | 69,250 | 0 | 32.79 | 0.75 | 39.54 | 55.44 | 19.46 | 3.71 | 9.88 | 10.86 | |||||
| 19:59 | Trim Patrick St | 3 | 28.6 | 34 | 69,258 | 0 | 35.73 | 0.72 | 43.02 | 53.4 | 19.93 | 3.71 | 10.64 | 11.7 | |||||
| 19:59 | Trim Market St | 3 | 27.9 | 33 | 66,076 | 0 | 9.07 | 0.82 | 26.44 | 58.83 | 0 | 2.14 | 4.79 | 4.99 | |||||
| 19:58 | Trim Patrick St | 3 | 28.6 | 34 | 69,276 | 0 | 36.74 | 0.72 | 51.18 | 47.76 | 19.77 | 3.71 | 9.84 | 10.83 | |||||
| 19:58 | Trim Market St | 3 | 28 | 33 | 66,100 | 0 | 9.63 | 0.8 | 27.88 | 61.96 | 0 | 2.85 | 6.4 | 6.68 | |||||
| 19:57 | Trim Patrick St | 3 | 28.6 | 34 | 69,262 | 0 | 35.48 | 0.72 | 39.86 | 55.96 | 20.46 | 3.71 | 10.65 | 11.71 | |||||